Вернуться в каталог

DELTA 1 DEB

АктивенLEO
NORAD 7080·DEBRIS·🇺🇸 United States

Запущен Nov 6, 1973 с Vandenberg Space Force Base

Loading…

Ближайшие Пролёты (ближайшие 24 часа)

TLE

СвежийSource: Space-Track

Эпоха: Sep 14, 2026, 10:37 UTC

1 07080U 73086BY  26257.44256397  .00000493  00000-0  26936-2 0  9995
2 07080 101.9413 258.3714 0048501  22.4355 138.3456 12.70583112421440

Отслеживайте DELTA 1 DEB в реальном времени с AllMySat

Download on the App Store